[[{"header":{"parameterUnit":"m.s-1","parameterCategory":1,"la1":30.2991,"la2":30.254,"lo1":-89.0895,"lo2":-89.0444,"dy":0.0017,"dx":0.0017,"nx":28,"ny":28,"refTime":"2023-08-11T03:00:00:Z","depth":0,"parameterNumber":2,"parameterNumberName":"U-component_of_WINDS"},"data":[0,0,0,0,0,0,0,0,0,0,0,0,0,0,0,0,0,0,0,0,0,0,0,0,0,0,0,0,0,0,0,0,0,0,0,0,0,0,0,0,0,0,0,0,0,0,0,0,0,0,0,0,0,0,0,0,0,0,2.093,2.093,0,2.1016,2.1017,2.1018,2.099,2.0988,2.0986,2.0984,2.108,2.1084,2.1088,0,0,0,0,0,0,0,0,0,0,0,0,0,2.0747,2.0751,2.0929,2.0931,2.0932,2.1016,2.1017,2.1018,2.099,2.0988,2.0986,2.0984,2.1078,2.1083,2.1089,0,0,0,0,0,0,0,0,0,0,0,0,0,2.083,2.0752,2.0929,2.0928,2.0928,2.1015,2.1017,2.1018,2.0991,2.0988,2.0985,2.0983,2.1077,2.1083,2.1089,2.1185,0,0,2.1109,2.1112,0,0,0,0,0,0,0,0,2.0825,2.0836,2.0927,2.0928,2.0929,2.0989,2.0988,2.1075,2.0992,2.0967,2.0984,2.0981,2.1052,2.1061,2.1083,2.119,2.1194,2.111,2.1113,2.1116,2.1118,0,0,0,0,0,0,0,2.0819,2.0832,2.0964,2.0928,2.093,2.0925,2.0934,2.1004,2.1025,2.0969,2.0967,2.0978,2.1052,2.1077,2.1085,2.1195,2.1109,2.1115,2.1119,2.1122,2.1386,2.1389,0,0,0,0,0,0,2.0812,2.0828,2.0961,2.0966,2.0869,2.0931,2.094,2.0973,2.1024,2.1029,2.098,2.0976,2.1067,2.1078,2.1089,2.1205,2.1116,2.1122,2.1126,2.1383,2.1386,2.139,0,0,0,0,0,0,2.0808,2.0824,2.0958,2.0897,2.0913,2.0937,2.0974,2.0976,2.1,2.1032,2.1036,2.1001,2.1066,2.1079,2.1161,2.1207,2.1125,2.1131,2.1379,2.1384,2.1388,2.1437,0,0,0,0,0,0,2.0803,2.0823,2.0858,2.0898,2.0917,2.1027,2.0976,2.098,2.1011,2.1006,2.1053,2.1058,2.1065,2.1152,2.1167,2.1215,2.1136,2.1375,2.1381,2.1387,2.1431,2.1443,2.1453,0,0,0,0,0,2.0797,2.0869,2.086,2.0876,2.096,2.1029,2.1041,2.1045,2.1015,2.1051,2.1071,2.1056,2.12,2.116,2.1178,2.1228,2.1372,2.1379,2.1386,2.1427,2.1441,2.1452,0,0,0,0,0,0,2.0837,2.0875,2.0864,2.0952,2.0987,2.1024,2.107,2.106,2.1106,2.1101,2.1106,2.1117,2.1201,2.1223,2.1178,2.1324,2.1282,2.1293,2.1306,2.132,2.133,2.1324,2.1141,0,0,0,0,0,2.0855,2.0906,2.0937,2.1012,2.103,2.1047,2.1077,2.1078,2.1116,2.1131,2.1158,2.1197,2.1251,2.1287,2.1338,2.1434,2.1445,2.1478,2.1488,2.1497,2.1507,2.156,2.1575,2.1413,2.1413,2.1413,0,0,2.0895,2.0922,2.0954,2.102,2.1048,2.1102,2.106,2.1119,2.1161,2.1141,2.1219,2.124,2.1285,2.1374,2.1415,2.1395,2.1553,2.1506,2.1513,2.1518,2.1569,2.1584,2.1598,2.1418,2.1417,2.1416,0,0,2.0995,2.102,2.1085,2.1113,2.1155,2.1166,2.1182,2.1221,2.1233,2.1311,2.1298,2.1348,2.1441,2.1473,2.1502,2.1615,2.1603,2.1632,2.1688,2.174,2.1753,2.1764,2.1805,2.182,2.1641,2.1642,2.1642,0,2.104,2.1119,2.112,2.118,2.1211,2.1193,2.126,2.1289,2.1346,2.1368,2.1344,2.146,2.149,2.1587,2.1614,2.1638,2.1657,2.1627,2.175,2.1762,2.1772,2.1812,2.1827,2.1645,2.1644,2.1644,2.1644,0,2.1172,2.1228,2.1275,2.1329,2.1365,2.1428,2.1441,2.1478,2.1475,2.149,2.157,2.1604,2.1662,2.1686,2.1685,2.1783,2.1769,2.1748,2.1706,2.1791,2.1828,2.1843,2.1649,2.1648,2.1647,2.1647,0,0,2.1299,2.1353,2.137,2.1395,2.144,2.1484,2.1548,2.1602,2.1634,2.1675,2.173,2.1808,2.1789,2.1821,2.1824,2.187,2.1958,2.1843,2.1844,2.1864,2.207,2.2086,2.2103,2.195,2.1953,2.1956,2.2066,0,2.1403,2.1512,2.1516,2.1617,2.1669,2.1654,2.171,2.1745,2.176,2.1809,2.1827,2.1883,2.1852,2.1872,2.1916,2.1938,2.2,2.193,2.2003,2.2006,2.1992,2.2122,2.2139,2.2242,2.2081,2.2083,2.2085,0,2.1539,2.1582,2.1687,2.1726,2.1748,2.1797,2.1848,2.1894,2.1934,2.1943,2.1979,2.1975,2.2043,2.1998,2.2092,2.2044,2.2074,2.209,2.2094,2.2101,2.205,2.2133,2.2275,2.229,2.2108,2.2106,2.2104,0,2.1622,2.1706,2.178,2.1802,2.1848,2.1884,2.1905,2.1942,2.1975,2.2021,2.2043,2.2096,2.2126,2.2168,2.218,2.2146,2.2274,2.223,2.2284,2.2284,2.2312,2.231,2.246,2.2331,2.2331,2.233,2.233,0,2.1738,2.1803,2.1818,2.1864,2.1937,2.1942,2.2015,2.2034,2.2068,2.2118,2.211,2.2158,2.217,2.2221,2.2231,2.2307,2.2321,2.2331,2.2333,2.2332,2.233,2.2352,2.2345,2.2335,2.2334,2.2333,2.2332,0,2.1842,2.1855,2.1935,2.1972,2.1983,2.2036,2.2068,2.2113,2.2128,2.2192,2.2207,2.2231,2.2291,2.2306,2.2378,2.2385,2.2475,2.2471,2.2461,2.2461,2.2514,2.2509,2.2684,2.2707,2.2563,2.2564,2.2565,0,2.1915,2.1965,2.2007,2.2039,2.2062,2.2114,2.2148,2.2155,2.219,2.224,2.228,2.2338,2.2385,2.2481,2.2506,2.2562,2.2558,2.2616,2.2567,2.2564,2.256,2.2556,2.2562,2.2625,2.2627,2.2628,2.2629,0,2.2044,2.2048,2.2095,2.2145,2.2184,2.2224,2.2263,2.2291,2.2303,2.2344,2.2404,2.244,2.2513,2.2572,2.2627,2.2652,2.2643,2.2644,2.2659,2.2659,2.2651,2.2656,2.2487,2.264,2.2639,2.2638,2.2637,2.2637,2.2135,2.2179,2.2215,2.2269,2.2298,2.2334,2.2378,2.2398,2.2447,2.2505,2.2507,2.2573,2.2613,2.2687,2.2715,2.2767,2.275,2.2773,2.2778,2.2784,2.2788,2.2643,2.2778,2.2777,2.2777,2.2777,2.2777,0,2.2263,2.2286,2.2335,2.2388,2.2431,2.2417,2.2459,2.2496,2.2553,2.259,2.2636,2.2706,2.2763,2.2792,2.2849,2.2886,2.2883,2.2901,2.2898,2.2904,2.28,2.2781,2.2902,2.2902,2.2901,2.2901,2.2901,2.2901,2.2335,2.2408,2.2416,2.2505,2.2528,2.259,2.2615,2.265,2.2679,2.2757,2.2803,2.2821,2.2856,2.2915,2.2968,2.2975,2.2996,2.3016,2.3021,2.2924,2.2911,2.2899,2.2881,2.302,2.3021,2.312,2.3121,2.3122]},{"header":{"parameterUnit":"m.s-1","parameterCategory":1,"la1":30.2991,"la2":30.254,"lo1":-89.0895,"lo2":-89.0444,"dy":0.0017,"dx":0.0017,"nx":28,"ny":28,"refTime":"2023-08-11T03:00:00:Z","depth":0,"parameterNumber":3,"parameterNumberName":"V-component_of_WINDS"},"data":[0,0,0,0,0,0,0,0,0,0,0,0,0,0,0,0,0,0,0,0,0,0,0,0,0,0,0,0,0,0,0,0,0,0,0,0,0,0,0,0,0,0,0,0,0,0,0,0,0,0,0,0,0,0,0,0,0,0,3.8786,3.8787,0,3.885,3.8851,3.8852,3.8857,3.8857,3.8856,3.8855,3.8917,3.8919,3.8922,0,0,0,0,0,0,0,0,0,0,0,0,0,3.8662,3.8665,3.8786,3.8787,3.8788,3.885,3.8851,3.8852,3.8858,3.8857,3.8856,3.8855,3.8916,3.8919,3.8922,0,0,0,0,0,0,0,0,0,0,0,0,0,3.872,3.8665,3.8786,3.8798,3.88,3.885,3.8851,3.8852,3.8858,3.8857,3.8856,3.8855,3.8916,3.8919,3.8922,3.8963,0,0,3.8933,3.8934,0,0,0,0,0,0,0,0,3.8717,3.8725,3.8796,3.8798,3.88,3.8845,3.883,3.8889,3.8858,3.8836,3.8855,3.8854,3.8894,3.8899,3.8913,3.8966,3.8969,3.8933,3.8935,3.8936,3.8937,0,0,0,0,0,0,0,3.8713,3.8722,3.8811,3.8797,3.8799,3.8798,3.8805,3.8841,3.8869,3.8838,3.8838,3.8846,3.8894,3.891,3.8914,3.897,3.8933,3.8936,3.8938,3.8939,3.9053,3.9054,0,0,0,0,0,0,3.8707,3.8719,3.8809,3.8813,3.8755,3.8801,3.8809,3.8831,3.8869,3.8874,3.8847,3.8846,3.8904,3.891,3.8917,3.8963,3.8936,3.8939,3.8941,3.9052,3.9054,3.9055,0,0,0,0,0,0,3.8705,3.8715,3.8807,3.8766,3.8778,3.8805,3.8829,3.8833,3.8848,3.8876,3.888,3.8857,3.8904,3.8912,3.895,3.8966,3.8941,3.8944,3.9051,3.9053,3.9054,3.906,0,0,0,0,0,0,3.8701,3.8714,3.8732,3.8767,3.878,3.8842,3.883,3.8835,3.8855,3.8854,3.8887,3.8892,3.8904,3.8945,3.8954,3.897,3.8947,3.905,3.9052,3.9054,3.9058,3.9061,3.9064,0,0,0,0,0,3.8697,3.8732,3.8733,3.8744,3.8803,3.8843,3.885,3.8865,3.8856,3.8872,3.8889,3.8891,3.8963,3.8949,3.8959,3.8976,3.9049,3.9051,3.9054,3.9057,3.9061,3.9064,0,0,0,0,0,0,3.8699,3.8737,3.8739,3.8786,3.8811,3.8844,3.8866,3.8869,3.8896,3.8894,3.8909,3.8917,3.8954,3.8969,3.8953,3.9015,3.9005,3.9009,3.9004,3.9008,3.901,3.9005,3.895,0,0,0,0,0,3.8705,3.8736,3.8766,3.8805,3.8818,3.8839,3.8857,3.8866,3.8892,3.8902,3.8922,3.8946,3.8973,3.8992,3.9019,3.906,3.9065,3.9076,3.9079,3.9081,3.9084,3.9103,3.9107,3.9062,3.9062,3.9062,0,0,3.8717,3.8742,3.8761,3.8806,3.8827,3.8855,3.8848,3.8881,3.8901,3.8907,3.8944,3.8959,3.8986,3.9025,3.9043,3.9039,3.9098,3.9084,3.9086,3.9088,3.9106,3.911,3.9114,3.9064,3.9063,3.9063,0,0,3.8755,3.8778,3.8811,3.8831,3.8861,3.8875,3.8882,3.8914,3.8924,3.8961,3.8965,3.8988,3.9037,3.9055,3.907,3.9109,3.911,3.9117,3.9131,3.9149,3.9153,3.9156,3.9167,3.9171,3.912,3.912,3.912,0,3.8767,3.8812,3.8827,3.8858,3.8876,3.8882,3.8913,3.8931,3.8968,3.8979,3.8974,3.9032,3.9051,3.9092,3.9101,3.9115,3.9121,3.9114,3.9151,3.9155,3.9158,3.9168,3.9172,3.9121,3.9121,3.9121,3.9121,0,3.8823,3.8854,3.8876,3.8912,3.8932,3.8963,3.898,3.8998,3.9004,3.9016,3.9052,3.9075,3.9104,3.9115,3.9121,3.9156,3.9151,3.9149,3.9138,3.9162,3.9172,3.9176,3.9122,3.9122,3.9121,3.9121,0,0,3.8866,3.8906,3.8914,3.8928,3.896,3.8983,3.9012,3.9042,3.9055,3.908,3.9102,3.9141,3.9137,3.9155,3.9162,3.9178,3.9203,3.9173,3.9173,3.9175,3.9238,3.9239,3.9244,3.9203,3.9204,3.9205,3.9235,0,3.8904,3.8958,3.897,3.9015,3.9041,3.9045,3.9069,3.909,3.9102,3.9124,3.9136,3.9162,3.9157,3.9167,3.9183,3.9197,3.9215,3.9195,3.9222,3.9223,3.9214,3.9249,3.9251,3.9279,3.9239,3.924,3.924,0,3.8958,3.8982,3.903,3.9054,3.9066,3.9088,3.9113,3.9136,3.9157,3.9164,3.9182,3.9187,3.9213,3.9202,3.9237,3.9223,3.9234,3.9242,3.9243,3.9246,3.9232,3.925,3.9288,3.9291,3.9247,3.9247,3.9246,0,3.898,3.9025,3.9058,3.907,3.9101,3.9115,3.9128,3.9149,3.9165,3.9186,3.9196,3.922,3.9233,3.9251,3.926,3.9252,3.9294,3.9284,3.9298,3.9298,3.9306,3.9306,3.9345,3.9316,3.9316,3.9316,3.9316,0,3.9021,3.9049,3.9068,3.9088,3.9118,3.913,3.9159,3.9171,3.9189,3.9209,3.9214,3.9233,3.9246,3.9265,3.9273,3.9299,3.9306,3.931,3.9311,3.9309,3.9308,3.9316,3.9314,3.9317,3.9317,3.9317,3.9317,0,3.9051,3.9065,3.9101,3.9126,3.9132,3.9153,3.9173,3.9191,3.9201,3.9227,3.9234,3.925,3.9273,3.9285,3.9314,3.9318,3.9347,3.9348,3.934,3.934,3.9353,3.935,3.9397,3.9403,3.9372,3.9373,3.9373,0,3.9076,3.9097,3.9123,3.9137,3.915,3.9174,3.9189,3.92,3.9215,3.9239,3.9253,3.9276,3.9296,3.9332,3.9345,3.9366,3.9366,3.9381,3.9369,3.9365,3.9364,3.9362,3.9362,3.9383,3.9383,3.9383,3.9383,0,3.9116,3.9121,3.9144,3.9167,3.9185,3.9204,3.9223,3.9234,3.9247,3.9263,3.9287,3.9302,3.933,3.9352,3.9373,3.9384,3.9385,3.9387,3.9391,3.9388,3.9381,3.9382,3.9343,3.9386,3.9385,3.9385,3.9385,3.9385,3.9143,3.916,3.918,3.9204,3.9218,3.9235,3.9252,3.9264,3.9284,3.9308,3.9313,3.9337,3.9354,3.9383,3.9394,3.9411,3.9408,3.9415,3.9416,3.9417,3.9416,3.9379,3.9416,3.9416,3.9415,3.9415,3.9415,0,3.9181,3.9193,3.9215,3.924,3.9257,3.9257,3.9277,3.9291,3.9312,3.9329,3.9347,3.9372,3.9392,3.9406,3.9426,3.9436,3.9437,3.9441,3.944,3.9442,3.9419,3.9413,3.944,3.944,3.944,3.944,3.944,3.944,3.9203,3.9232,3.9238,3.9273,3.9284,3.9308,3.9319,3.9333,3.9346,3.9373,3.939,3.9399,3.9414,3.9434,3.9451,3.9455,3.9461,3.9465,3.9468,3.9446,3.9444,3.9441,3.9435,3.9466,3.9466,3.9488,3.9488,3.9489]}]]